Weather in Stepanivka

Ukraine / Vinnytsia Region     49°07′49″N   28°45′56″E
temp.,
°C
wind,
m/s
gust,
m/s
humid.,
%
clouds,
%
prec.,
mm/h
press.,
hPa
HPBL,
m
11 may, tue
tue1100:00+9ese36780 0.0 102396
03:00+7ese23780 0.0 102333
06:00+6ene22750 0.0 102324
09:00+12ne34590 0.0 1023416
12:00+16ne34505 0.0 1021869
15:00+19ne33525 0.0 10191040
18:00+19ne45605 0.0 10181232
21:00+14ne348064 0.0 101746
12 may, wed
wed1200:00+12ene37946 0.0 1017149
03:00+10e389831 0.0 1016238
06:00+9e599296 0.0 1016504
09:00+10e787223 0.0 1017892
12:00+11e786482 0.0 10161268
15:00+11e5763100 0.1 10151394
18:00+11e356799 0.0 1014970
21:00+8e34857 0.2 101385
13 may, thu
thu1300:00+6ese229153 0.0 101229
03:00+5ese229474 0.0 101223
06:00+5se35955 0.0 1011112
09:00+9se597998 0.0 1010456
12:00+8se61294100 1.3 1010612
15:00+13sse81279100 1.3 10091175
18:00+13sse71283100 0.1 1008799
21:00+11se61396100 1.4 1008632
14 may, fri
fri1400:00+11sse512946 1.1 1008399
03:00+9sse389513 1.1 1007162
06:00+8se36934 0.0 1007106
09:00+13sse4576100 0.0 1007330
12:00+14s5779100 0.7 1007746
15:00+12s2494100 5.9 1008257
18:00+13ssw2590100 0.3 1008410
21:00+12ssw359284 0.4 100873
15 may, sat
sat1500:00+10w33915 0.1 100940
03:00+9w22905 0.1 101021
06:00+9wnw228831 0.0 101114
09:00+14nne007134 0.0 1011292
12:00+17s236120 0.0 1011881
15:00+19ssw225176 0.0 10101826
18:00+17ese236783 0.5 101088
21:00+13ene228124 1.8 101019